Marshalltown, IA

11:53 PM CST on November 17, 2019 (GMT -0600)
Marshalltown Municipal

Weather History for KMIW - October, 2019

Change the Weather History Date:

Wednesday, October 23, 2019

  Actual Average Record
Temperature  
Mean Temperature 43 °F 47 °F  
Max Temperature 55 °F 58 °F 73 °F (2011)
Min Temperature 31 °F 36 °F 23 °F (1999)
Degree Days  
Heating Degree Days 22 18  
Month to date heating degree days 358 316  
Since 1 July heating degree days 409 476  
Cooling Degree Days 0 0  
Month to date cooling degree days 4 10  
Year to date cooling degree days 734 728  
Moisture  
Dew Point 37 °F    
Average Humidity 82    
Maximum Humidity 100    
Minimum Humidity 63    
Precipitation  
Precipitation 0.15 in 0.11 in 0.17 in (2015)
Month to date precipitation 4.79 1.76  
Sea Level Pressure  
Sea Level Pressure 29.95 in    
Wind  
Wind Speed 8 mph (NNW)    
Max Wind Speed 22 mph    
Max Gust Speed 28 mph    
Visibility 10 miles    
Events Rain    
T = Trace of Precipitation, MM = Missing Value Source: NWS Daily Summary

Daily Weather History Graph

Daily Weather History Graph

Search for Another Location

Airport or City:

Astronomy

Oct. 23, 2019 Rise Set
Actual Time 7:33 AM CDT 6:17 PM CDT
Civil Twilight 7:04 AM CDT 6:46 PM CDT
Nautical Twilight 6:32 AM CDT 7:19 PM CDT
Astronomical Twilight 5:59 AM CDT 7:51 PM CDT
Moon 1:44 AM CDT (10/23) 4:15 PM CDT (10/23)
Length of Visible Light 11h 41m
Length of Day
10h 44m
Waning Crescent, 26% of the Moon is Illuminated
Oct 23
Waning Crescent
Oct 27
New
Nov 4
First Quarter
Nov 12
Full
Nov 19
Last Quarter

Hourly Weather History & Observations

Time (CDT) Temp. Windchill Dew Point Humidity Pressure Visibility Wind Dir Wind Speed Gust Speed Precip Events Conditions
12:53 AM 35.1 °F 29.3 °F 30.9 °F 85% 29.84 in 10.0 mi SW 6.9 mph - N/A   Clear
1:53 AM 35.1 °F 29.3 °F 32.0 °F 89% 29.84 in 10.0 mi WSW 6.9 mph - N/A   Clear
2:53 AM 36.0 °F 32.1 °F 32.0 °F 86% 29.85 in 10.0 mi West 4.6 mph - N/A   Clear
3:53 AM 36.0 °F 33.3 °F 32.0 °F 86% 29.86 in 10.0 mi WSW 3.5 mph - N/A   Clear
4:53 AM 30.9 °F - 30.0 °F 96% 29.85 in 10.0 mi Calm Calm - N/A   Clear
5:53 AM 33.1 °F - 32.0 °F 96% 29.86 in 10.0 mi Calm Calm - N/A   Clear
6:53 AM 34.0 °F - 33.1 °F 96% 29.87 in 10.0 mi Calm Calm - N/A   Overcast
7:53 AM 36.0 °F 33.3 °F 35.1 °F 97% 29.88 in 10.0 mi SSE 3.5 mph - N/A   Overcast
8:53 AM 37.9 °F - 36.0 °F 93% 29.89 in 10.0 mi Calm Calm - N/A   Overcast
9:53 AM 42.1 °F 38.4 °F 37.0 °F 82% 29.88 in 10.0 mi NE 5.8 mph - N/A   Mostly Cloudy
10:53 AM 46.0 °F 42.5 °F 39.0 °F 76% 29.87 in 10.0 mi East 6.9 mph - 0.00 in Rain Light Rain
11:53 AM 50.0 °F - 39.0 °F 66% 29.87 in 10.0 mi ESE 10.4 mph - 0.00 in   Scattered Clouds
12:53 PM 52.0 °F - 39.9 °F 63% 29.84 in 10.0 mi SE 8.1 mph - N/A   Mostly Cloudy
1:53 PM 53.1 °F - 43.0 °F 69% 29.80 in 10.0 mi East 8.1 mph - N/A   Mostly Cloudy
2:53 PM 48.0 °F - 44.1 °F 86% 29.88 in 9.0 mi North 12.7 mph - 0.08 in Rain Light Rain
3:53 PM 44.1 °F 36.5 °F 42.1 °F 93% 29.89 in 6.0 mi NNE 17.3 mph 25.3 mph 0.02 in Rain Light Rain
4:53 PM 43.0 °F 35.1 °F 39.9 °F 89% 29.93 in 10.0 mi North 17.3 mph 25.3 mph 0.00 in   Overcast
5:53 PM 41.0 °F 33.9 °F 39.0 °F 93% 29.97 in 9.0 mi NNE 12.7 mph - 0.00 in Rain Light Rain
6:53 PM 39.9 °F 32.9 °F 37.9 °F 93% 30.02 in 10.0 mi North 11.5 mph - 0.01 in Rain Light Rain
7:31 PM 39.0 °F 31.4 °F 39.0 °F 100% 30.02 in 7.0 mi North 12.7 mph - 0.03 in Rain Light Rain
7:53 PM 39.0 °F 31.4 °F 39.0 °F 100% 30.06 in 10.0 mi North 12.7 mph - 0.03 in Rain Light Rain
8:22 PM 39.0 °F 31.8 °F 37.9 °F 96% 30.06 in 10.0 mi North 11.5 mph - 0.01 in   Overcast
8:53 PM 37.9 °F 30.9 °F 37.9 °F 100% 30.10 in 10.0 mi NNW 10.4 mph - 0.01 in   Overcast
9:13 PM 37.9 °F 32.1 °F 37.9 °F 100% 30.09 in 10.0 mi NNW 8.1 mph - N/A   Overcast
9:53 PM 37.9 °F 32.1 °F 37.9 °F 100% 30.12 in 10.0 mi NNW 8.1 mph - N/A   Overcast
10:20 PM 37.9 °F 31.5 °F 37.9 °F 100% 30.11 in 10.0 mi NNW 9.2 mph - N/A   Overcast
10:53 PM 37.9 °F 31.5 °F 37.9 °F 100% 30.14 in 10.0 mi NW 9.2 mph - N/A   Overcast
11:05 PM 37.9 °F 32.7 °F 37.9 °F 100% 30.13 in 10.0 mi WNW 6.9 mph - N/A   Overcast
11:53 PM 37.9 °F 32.1 °F 37.9 °F 100% 30.17 in 10.0 mi WNW 8.1 mph - N/A   Overcast